Location: Dunedin
(45.8900°S, 170.5000°E)
Time: 12:28:40
(UTC+12:00)

ISS - Pass Details

Date: 16 April 2024
Orbit: 409 x 414 km, 51.6° (Epoch: 20 May)

Event Time Altitude Azimuth Distance (km) Brightness Sun altitude
Rises 19:21:32 0° 315° (NW) 2,392 0.8 -15.0°
Reaches altitude 10° 19:23:41 10° 321° (NW) 1,532 -0.4 -15.4°
Maximum altitude 19:27:01 48° 36° (NE) 581 -3.3 -16.0°
Enters shadow 19:27:49 38° 77° (ENE) 676 -3.2 -16.1°
